Butler, PA

3:47 AM EDT on August 22, 2019 (GMT -0400)
Butler County-Scholter

Weather History for KBTP - June, 2019

Change the Weather History Date:

Sunday, June 2, 2019

  Actual Average Record
Temperature  
Mean Temperature 58 °F -  
Max Temperature 68 °F 69 °F 90 °F (1969)
Min Temperature 46 °F 50 °F 35 °F (2003)
Degree Days  
Heating Degree Days 6    
Growing Degree Days 8 (Base 50)    
Moisture  
Dew Point 55 °F    
Average Humidity 87    
Maximum Humidity 100    
Minimum Humidity 48    
Precipitation  
Precipitation 0.02 in - - ()
Sea Level Pressure  
Sea Level Pressure 29.82 in    
Wind  
Wind Speed 5 mph (SSW)    
Max Wind Speed 9 mph    
Max Gust Speed 20 mph    
Visibility 8 miles    
Events Rain , Thunderstorm    
Averages and records for this station are not official NWS values.
T = Trace of Precipitation, MM = Missing Value Source: NWS Daily Summary

Daily Weather History Graph

Daily Weather History Graph

Search for Another Location

Airport or City:

Astronomy

Jun. 02, 2019 Rise Set
Actual Time 5:50 AM EDT 8:45 PM EDT
Civil Twilight 5:17 AM EDT 9:18 PM EDT
Nautical Twilight 4:36 AM EDT 9:59 PM EDT
Astronomical Twilight 3:48 AM EDT 10:48 PM EDT
Moon 5:29 AM EDT (6/2) 8:02 PM EDT (6/2)
Length of Visible Light 16h 00m
Length of Day
14h 55m
Waning Crescent, 1% of the Moon is Illuminated
Jun 2
Waning Crescent
Jun 3
New
Jun 10
First Quarter
Jun 17
Full
Jun 25
Last Quarter

Hourly Weather History & Observations

Time (EDT) Temp. Dew Point Humidity Pressure Visibility Wind Dir Wind Speed Gust Speed Precip Events Conditions
12:52 AM 57.2 °F 57.2 °F 100% 29.84 in 5.0 mi SE 4.6 mph - N/A Rain Light Rain
12:56 AM 57.9 °F 57.9 °F 100% 29.84 in 7.0 mi SE 5.8 mph - N/A Rain Light Rain
1:56 AM 57.9 °F 57.0 °F 97% 29.82 in 9.0 mi Calm Calm - N/A   Clear
2:56 AM 59.0 °F 57.0 °F 93% 29.78 in 10.0 mi South 3.5 mph - N/A   Overcast
3:47 AM 57.2 °F 57.2 °F 100% 29.82 in 3.0 mi Variable 6.9 mph - N/A Rain , Thunderstorm Heavy Thunderstorms and Rain
3:51 AM 57.2 °F 55.4 °F 94% 29.81 in 4.0 mi NNW 6.9 mph - N/A Rain , Thunderstorm Heavy Thunderstorms and Rain
3:56 AM 57.0 °F 55.9 °F 96% 29.82 in 5.0 mi Calm Calm - N/A Rain , Thunderstorm Heavy Thunderstorms and Rain
4:04 AM 57.2 °F 55.4 °F 94% 29.80 in 2.5 mi NNE 3.5 mph - N/A Rain , Thunderstorm Heavy Thunderstorms and Rain
4:07 AM 57.2 °F 55.4 °F 94% 29.80 in 3.0 mi NE 6.9 mph - N/A Rain , Thunderstorm Light Thunderstorms and Rain
4:18 AM 57.2 °F 55.4 °F 94% 29.80 in 5.0 mi Variable 3.5 mph - N/A Rain , Thunderstorm Heavy Rain
4:42 AM 57.2 °F 55.4 °F 94% 29.79 in 5.0 mi SSE 3.5 mph - N/A Rain Rain
4:56 AM 57.0 °F 55.9 °F 96% 29.79 in 8.0 mi Calm Calm - N/A Rain Light Rain
5:56 AM 57.0 °F 55.9 °F 96% 29.75 in 10.0 mi ENE 4.6 mph - N/A Rain Light Rain
6:56 AM 57.0 °F 55.9 °F 96% 29.78 in 8.0 mi South 5.8 mph - 0.00 in Rain Light Rain
7:03 AM 57.2 °F 55.4 °F 94% 29.78 in 9.0 mi South 6.9 mph - 0.00 in   Overcast
7:32 AM 57.2 °F 57.2 °F 100% 29.77 in 8.0 mi SE 5.8 mph - 0.00 in   Overcast
7:56 AM 57.9 °F 57.0 °F 97% 29.78 in 9.0 mi South 5.8 mph - 0.00 in   Overcast
8:15 AM 57.2 °F 57.2 °F 100% 29.78 in 9.0 mi South 4.6 mph - N/A   Overcast
8:56 AM 60.1 °F 57.9 °F 93% 29.80 in 10.0 mi SSE 8.1 mph - N/A   Overcast
9:56 AM 62.1 °F 59.0 °F 90% 29.81 in 10.0 mi SW 5.8 mph - N/A   Overcast
10:43 AM 62.6 °F 59.0 °F 88% 29.80 in 10.0 mi WSW 5.8 mph - 0.01 in   Overcast
10:56 AM 63.0 °F 59.0 °F 87% 29.81 in 10.0 mi West 4.6 mph - 0.01 in   Overcast
11:56 AM 64.9 °F 60.1 °F 84% 29.81 in 10.0 mi Variable 5.8 mph - N/A   Overcast
12:04 PM 64.4 °F 60.8 °F 88% 29.80 in 10.0 mi Variable 6.9 mph - N/A   Overcast
12:17 PM 64.4 °F 60.8 °F 88% 29.81 in 10.0 mi West 9.2 mph - N/A   Overcast
12:41 PM 64.4 °F 59.0 °F 83% 29.82 in 10.0 mi West 6.9 mph - N/A   Overcast
12:56 PM 64.9 °F 59.0 °F 81% 29.82 in 10.0 mi Variable 4.6 mph - N/A   Overcast
1:56 PM 66.9 °F 57.9 °F 73% 29.81 in 10.0 mi West 6.9 mph - N/A   Overcast
2:34 PM 66.2 °F 59.0 °F 78% 29.79 in 10.0 mi West 6.9 mph - N/A   Overcast
2:56 PM 63.0 °F 57.9 °F 84% 29.81 in 10.0 mi Variable 4.6 mph 19.6 mph 0.00 in Rain Light Rain
3:03 PM 62.6 °F 59.0 °F 88% 29.80 in 10.0 mi Variable 4.6 mph - 0.00 in Rain Light Rain
3:26 PM 62.6 °F 57.2 °F 82% 29.81 in 10.0 mi NW 6.9 mph 19.6 mph 0.00 in   Overcast
3:56 PM 61.0 °F 55.9 °F 83% 29.84 in 10.0 mi Variable 6.9 mph 18.4 mph 0.00 in   Overcast
4:22 PM 60.8 °F 53.6 °F 77% 29.83 in 10.0 mi NNW 6.9 mph - N/A   Overcast
4:56 PM 62.1 °F 48.0 °F 60% 29.85 in 10.0 mi NNW 8.1 mph 17.3 mph N/A   Overcast
5:56 PM 64.0 °F 44.1 °F 48% 29.87 in 10.0 mi Variable 6.9 mph - N/A   Clear
6:56 PM 64.0 °F 45.0 °F 50% 29.89 in 10.0 mi Variable 3.5 mph - N/A   Clear
8:56 PM 55.0 °F 46.0 °F 72% 29.91 in 10.0 mi Calm Calm - N/A   Clear
9:56 PM 52.0 °F 45.0 °F 77% 29.93 in 10.0 mi Calm Calm - 0.01 in   Clear
10:56 PM 51.1 °F 45.0 °F 80% 29.94 in 10.0 mi Calm Calm - N/A   Clear
11:56 PM 46.9 °F 44.1 °F 90% 29.92 in 10.0 mi Calm Calm - N/A   Clear